Retour au catalogue

KUIPER-00183

ActifCommunicationsLEO
NORAD 67138·PAYLOAD·🇺🇸 United States

Lancé Dec 15, 2025 depuis Cape Canaveral Space Force Station

Loading…

Prochains Passages (prochaines 24 heures)

TLE

FraisSource: CelesTrak SupGP

Époque: Sep 15, 2026, 05:28 UTC

1 67138C 25301F   26258.22824074 -.00002850  00000+0 -37311-3 0  2580
2 67138  51.9011 290.0088 0000426  64.9533 263.6652 14.79926908    19

Suivez KUIPER-00183 en temps réel avec AllMySat

Download on the App Store